Regional Weather Roundup
Issued by NWS San Diego, CA

Home | Current Version | Previous Version | Text Only | Print | Product List | Glossary On
Versions: 1 2 3 4 5 6 7 8 9 10 11 12 13 14 15 16 17 18 19 20 21 22 23 24 25 26 27 28 29 30 31 32 33 34 35 36 37 38 39 40 41 42 43 44 45 46 47 48 49 50
000
ASUS46 KSGX 310410
RWRSGX

SAN DIEGO HOURLY WEATHER ROUNDUP
NATIONAL WEATHER SERVICE SAN DIEGO CA
900 PM PDT SAT AUG 30 2014

NOTE: "FAIR" INDICATES FEW OR NO CLOUDS BELOW 12,000 FEET WITH NO
SIGNIFICANT WEATHER AND/OR OBSTRUCTIONS TO VISIBILITY.

CAZ042-043-060-061-PZZ750-775-310500-

GREATER SAN DIEGO AREA

CITY           SKY/WX    TMP DP  RH WIND       PRES   REMARKS
LINDBERGH FLD  PTCLDY    72  66  81 W5        29.79R
POINT LOMA       N/A     67  63  87 W7          N/A
NATIONAL CITY    N/A     73  68  84 CALM      29.79R
CHULA VISTA      N/A     71  67  89 CALM      29.72R
IMPERIAL BEACH CLEAR     67  64  90 CALM      29.79R
BROWN FIELD    CLEAR     68  64  87 NW3       29.79R
MIRAMAR MCAS   PTCLDY    70  64  81 N3        29.79R
MONTGOMERY FLD CLEAR     71  65  81 N3        29.79R

$$

NORTH SAN DIEGO COUNTY

CITY           SKY/WX    TMP DP  RH WIND       PRES   REMARKS
CAMP PENDLETON CLEAR     71  65  81 CALM      29.77R HAZE
OCEANSIDE AP   CLEAR     69  64  84 CALM      29.77R
OCEANSIDE HBR    N/A     71  68  89 CALM      29.80R
VISTA            N/A     73  65  77 CALM      29.75R
CARLSBAD       CLEAR     71  65  81 SW3       29.77R
DEL MAR          N/A     69  66  90 CALM      29.81R
LA JOLLA SCRIP   N/A     70  67  91 NW1       29.75S
FALLBROOK        N/A     70  68  93 CALM      29.78R
ESCONDIDO        N/A     74  65  72 W2        29.79R
SAN MARCOS       N/A     72  65  80 CALM      29.76R
POWAY            N/A     71  65  79 CALM      29.78R

$$

EAST SAN DIEGO COUNTY

CITY           SKY/WX    TMP DP  RH WIND       PRES   REMARKS
RAMONA         CLEAR     72  55  55 NW3       29.82R
SANTEE LAKES     N/A     73  65  75 CALM      29.78R
LA MESA          N/A     73  67  82 CALM      29.72R
JAMUL            N/A     72  64  75 CALM      29.77R
DESCANSO N       N/A     73  35  25 E2        29.65R
MT. LAGUNA OBS   N/A     71  26  18 W6        29.70S
CAMPO            N/A     72  38  29 NE3       29.86R

$$

ORANGE COUNTY AND THE LOS ANGELES BASIN

CITY           SKY/WX    TMP DP  RH WIND       PRES   REMARKS
JOHN WAYNE AP  CLEAR     74  67  78 S7        29.77R
LAGUNA BEACH     N/A     71  67  87 CALM      29.73R
LAKE FOREST FR   N/A     75  57  52 CALM      29.67R
SANTA ANA        N/A     76  68  76 CALM      29.72R
HUNTINGTON BCH   N/A     70  67  91 S7        29.78R
LOS ALAMITOS   FAIR      71  67  87 S3        29.76R
FULLERTON      CLEAR     77  64  64 S5        29.75R
LONG BEACH     CLEAR     75  65  70 NW5       29.76R
L.A. AP        CLEAR     71  65  81 SW6       29.77R
L.A. DOWNTOWN  CLEAR     74  64  71 W3        29.76R

$$

THE INLAND EMPIRE

CITY           SKY/WX    TMP DP  RH WIND       PRES   REMARKS
CORONA         CLEAR     79  60  51 W6        29.77R
CHINO          CLEAR     77  62  59 NW6       29.78R
ONTARIO        PTCLDY    81  59  47 W7        29.79R
SAN BERNARDINO CLEAR     82  50  32 SW6       29.80R
RIVERSIDE AP   CLEAR     83  55  38 CALM      29.78R
RIV CYN CREST    N/A     83  58  42 CALM      29.77R
MORENO VALLEY    N/A     84  47  27 CALM      29.02
MARCH ARB      CLEAR     80  46  29 NW3       29.83R
HORSETHIEF CYN   N/A     80  45  28 SW3       29.78R
PERRIS           N/A     83  46  27 CALM      29.79R
MENIFEE          N/A     83  58  42 SE6       29.85R
HEMET EAST       N/A     82  35  18 CALM      29.76R
FRENCH VALLEY  FAIR      77  55  47 E3        29.82R
TEMECULA         N/A     78  61  55 S2        29.76R

$$

SAN BERNARDINO AND RIVERSIDE COUNTY MOUNTAINS

CITY           SKY/WX    TMP DP  RH WIND       PRES   REMARKS
BIG BEAR AP    CLEAR     61  34  36 CALM      30.20R
PINE COVE        N/A     69  28  21 CALM      29.66R

$$

SOUTHERN DESERT INCLUDING THE COACHELLA VALLEY

CITY           SKY/WX    TMP DP  RH WIND       PRES   REMARKS
PALM SPRINGS   CLEAR    102  43  13 NW15      29.67R HX  97
THOUSAND PALMS   N/A     99  45  15 N10       29.60R HX  95
PALM DESERT      N/A     96  55  24 CALM      31.87R
THERMAL        CLEAR     93  53  25 N6        29.59R
BLYTHE         CLEAR    101  43  13 S17       29.64R HX  96
IMPERIAL AP    CLEAR     98  48  18 SW9       29.62R
YUMA AZ        CLEAR     96  45  17 S8        29.66R
MEXICALI       CLEAR     91  48  22 SE6       29.65R

$$

UPPER DESERT

CITY           SKY/WX    TMP DP  RH WIND       PRES   REMARKS
VICTORVILLE AP PTCLDY    82  27  13 W16       29.90S
HESPERIA         N/A     83  37  18 CALM      29.85R
APPLE VALLEY     N/A     85  29  13 SW3G22    29.97R
PALMDALE       MOCLDY    84  24  11 SW6       29.90R
LANCASTER      MOCLDY    81  28  14 W8        29.88R
EDWARDS AFB    MOCLDY    86  28  12 W17       29.83R
DAGGETT        PTCLDY    93  33  12 SW23G33   29.77R
29 PALMS N     CLEAR     94  32  11 W17       29.84R
NEEDLES        PTCLDY   102  32   8 SW12      29.66R HX  95

$$

REGIONAL REPORTS

CITY           SKY/WX    TMP DP  RH WIND       PRES   REMARKS
SANTA BARBARA  CLEAR     68  62  81 CALM      29.74R
SANDBERG       MOCLDY    77  24  14 N22       30.06R
MT. WILSON       N/A     72  32  23 SE2         N/A
LAS VEGAS NV   MOCLDY    98  26   7 S12       29.69R
PHOENIX AZ     CLEAR    100  42  13 CALM      29.71R HX  95
TIJUANA        CLEAR     68  63  83 NW7       29.81R
ENSENADA NW      N/A     69  32  25 E2        29.77R

$$

OFFSHORE ISLANDS

CITY           SKY/WX    TMP DP  RH WIND       PRES   REMARKS
CATALINA ARPT  CLEAR     79  48  33 W10       29.83S
SAN NICOLAS IS CLEAR    N/A N/A N/A NW25      29.78R

$$

MARINE AND OFFSHORE BUOY REPORTS

STATION/POSITION SKY/WX   TEMP    WIND        PRES    SWELL
                          AIR SEA DIR/SP/G            HT/PER/DIR
                          (F)     (DEG/KT/KT) (MB)    (FT/S/D)
TANNER BANKS               69 69  310/ 14/ 16 1008.9R   3/310/ 8
S CLEMENTE BASIN           69 71  280/  4/  6 1008.3R   3/230/16
SAN NICOLAS IS.               66                N/A     2/200/15
SO. S. ROSA ISLA           67 65  330/ 23/ 27 1007.8R   2/11
W. S. BARBARA CH           64 61  320/ 23/ 29 1008.1R   3/300/10
M. S. BARBARA CH           69 71  100/  4/  6 1007.0R
S. MONICA BASIN            71 72   60/  2/  4 1007.3R   2/200/15
S PEDRO CHANNEL               72                N/A     2/200/15
DANA POINT                    74                N/A     2/200/14
CMP PENDLETON NS              74                N/A     2/220/15
OCEANSIDE OFFSHR              74                N/A     2/210/17
TORREY PINES OTR              74                N/A     2/220/15
LA JOLLA 1                 71 72  350/  2/  2 1008.5R
MISSION BAY BUOY              69                N/A     2/210/17
SAN DIEGO BAY                 75              1008.9S
POINT LOMA SOUTH              74                N/A     2/210/17

$$




USA.gov is the U.S. government's official web portal to all federal, state and local government web resources and services.